Weather History for KSLG - February, 2014

Change the Weather History Date:

Tuesday, February 4, 2014

  Actual Average Record
Temperature  
Mean Temperature 28 °F -  
Max Temperature 32 °F 45 °F 75 °F (2008)
Min Temperature 24 °F 28 °F 14 °F (2009)
Degree Days  
Heating Degree Days 37    
Moisture  
Dew Point 21 °F    
Average Humidity 72    
Maximum Humidity 86    
Minimum Humidity 44    
Precipitation  
Precipitation 0.01 in - - ()
Sea Level Pressure  
Sea Level Pressure 29.97 in    
Wind  
Wind Speed 6 mph (NNE)    
Max Wind Speed 15 mph    
Max Gust Speed 30 mph    
Averages and records for this station are not official NWS values.
T = Trace of Precipitation, MM = Missing Value Source: NWS Daily Summary

Daily Weather History Graph

Daily Weather History Graph

Search for Another Location

Airport or City:

Trip Planner

Search our weather history database for the weather conditions in past years. The results will help you decide how hot, cold, wet, or windy it might be!

Date:

Astronomy

Feb. 04, 2014 Rise Set
Actual Time 7:16 AM CST 5:47 PM CST
Civil Twilight 6:49 AM CST 6:14 PM CST
Nautical Twilight 6:18 AM CST 6:45 PM CST
Astronomical Twilight 5:48 AM CST 7:15 PM CST
Moon 10:05 AM CST (2/4) 11:30 PM CST (2/4)
Length of Visible Light 11h 25m
Length of Day
10h 31m
Waxing Crescent, 29% of the Moon is Illuminated
Feb 4
Waxing Crescent
Feb 6
First Quarter
Feb 14
Full
Feb 22
Last Quarter
Mar 1
New

Hourly Weather History & Observations

Time (CST) Temp. Windchill Dew Point Humidity Pressure Visibility Wind Dir Wind Speed Gust Speed Precip Events Conditions
12:15 AM 30.2 °F 21.3 °F 15.8 °F 55% 30.09 in - NNE 10.4 mph 16.1 mph N/A   Partly Cloudy
12:35 AM 30.2 °F 21.9 °F 14.0 °F 51% 30.10 in - NNE 9.2 mph 16.1 mph N/A   Mostly Cloudy
12:55 AM 30.2 °F 22.6 °F 15.8 °F 55% 30.09 in - NNE 8.1 mph - N/A   Overcast
1:15 AM 30.2 °F 21.9 °F 15.8 °F 55% 30.09 in - NNE 9.2 mph - N/A   Mostly Cloudy
1:35 AM 30.2 °F 23.4 °F 14.0 °F 51% 30.11 in - NNE 6.9 mph - N/A   Mostly Cloudy
1:55 AM 30.2 °F 22.6 °F 14.0 °F 51% 30.09 in - NNE 8.1 mph - N/A   Overcast
2:15 AM 30.2 °F 20.8 °F 14.0 °F 51% 30.08 in - NE 11.5 mph 16.1 mph N/A   Overcast
2:35 AM 30.2 °F 20.2 °F 12.2 °F 47% 30.06 in - NNE 12.7 mph 19.6 mph N/A   Overcast
2:55 AM 30.2 °F 23.4 °F 12.2 °F 47% 30.08 in - NNE 6.9 mph - N/A   Overcast
3:15 AM 30.2 °F 22.6 °F 12.2 °F 47% 30.07 in - NNE 8.1 mph - N/A   Overcast
3:35 AM 30.2 °F 21.9 °F 12.2 °F 47% 30.08 in - North 9.2 mph - N/A   Overcast
3:55 AM 30.2 °F 21.9 °F 12.2 °F 47% 30.07 in - North 9.2 mph - N/A   Overcast
4:15 AM 30.2 °F 22.6 °F 12.2 °F 47% 30.07 in - North 8.1 mph - N/A   Overcast
4:35 AM 30.2 °F 22.6 °F 10.4 °F 44% 30.08 in - North 8.1 mph - N/A   Overcast
4:55 AM 30.2 °F 22.6 °F 10.4 °F 44% 30.07 in - North 8.1 mph - N/A   Overcast
5:15 AM 28.4 °F 19.7 °F 12.2 °F 51% 30.07 in - North 9.2 mph - N/A   Overcast
5:35 AM 28.4 °F 19.1 °F 12.2 °F 51% 30.05 in - NNE 10.4 mph 16.1 mph N/A   Overcast
5:55 AM 28.4 °F 19.1 °F 12.2 °F 51% 30.06 in - NNE 10.4 mph - N/A   Overcast
6:15 AM 28.4 °F 19.7 °F 12.2 °F 51% 30.05 in - NNE 9.2 mph 17.3 mph N/A   Overcast
6:35 AM 28.4 °F 17.5 °F 15.8 °F 59% 30.04 in - NNE 13.8 mph 19.6 mph N/A   Overcast
6:55 AM 26.6 °F 16.2 °F 17.6 °F 69% 30.03 in - NNE 11.5 mph 20.7 mph N/A   Overcast
7:15 AM 24.8 °F 12.4 °F 17.6 °F 74% 30.00 in - NNE 15.0 mph 18.4 mph N/A   Overcast
7:35 AM 26.6 °F 14.7 °F 19.4 °F 74% 29.98 in - NNE 15.0 mph 24.2 mph N/A   Overcast
7:55 AM 24.8 °F 13.4 °F 17.6 °F 74% 29.96 in - NNE 12.7 mph 27.6 mph N/A   Overcast
8:15 AM 26.6 °F 15.7 °F 19.4 °F 74% 29.95 in - NNE 12.7 mph 29.9 mph N/A   Overcast
8:35 AM 26.6 °F 15.7 °F 19.4 °F 74% 29.96 in - NNE 12.7 mph 20.7 mph N/A   Overcast
8:55 AM 26.6 °F 15.7 °F 19.4 °F 74% 29.95 in - NNE 12.7 mph 21.9 mph N/A   Overcast
9:15 AM 26.6 °F - 21.2 °F 80% 29.95 in - Calm Calm - N/A   Overcast
9:35 AM 28.4 °F - 21.2 °F 74% 29.96 in - Calm Calm - N/A   Overcast
9:55 AM 28.4 °F - 21.2 °F 74% 29.98 in - Calm Calm - N/A   Overcast
10:15 AM 28.4 °F - 21.2 °F 74% 29.97 in - Calm Calm - N/A   Overcast
10:35 AM 28.4 °F - 21.2 °F 74% 29.97 in - Calm Calm - N/A   Overcast
10:55 AM 28.4 °F - 23.0 °F 80% 29.97 in - Calm Calm - N/A   Overcast
11:15 AM 28.4 °F - 23.0 °F 80% 29.95 in - Calm Calm - N/A   Overcast
11:35 AM 28.4 °F - 23.0 °F 80% 29.95 in - Calm Calm - N/A   Overcast
11:55 AM 30.2 °F - 24.8 °F 80% 29.93 in - Calm Calm - N/A   Overcast
12:15 PM 30.2 °F - 24.8 °F 80% 29.92 in - Calm Calm - N/A   Overcast
12:35 PM 30.2 °F - 24.8 °F 80% 29.91 in - Calm Calm - N/A   Overcast
12:55 PM 30.2 °F - 26.6 °F 86% 29.91 in - Calm Calm - N/A   Unknown
1:15 PM 30.2 °F - 26.6 °F 86% 29.90 in - Calm Calm - N/A   Overcast
1:35 PM 30.2 °F - 26.6 °F 86% 29.89 in - Calm Calm - N/A   Overcast
1:55 PM 30.2 °F - 26.6 °F 86% 29.88 in - Calm Calm - N/A   Overcast
2:15 PM 30.2 °F - 26.6 °F 86% 29.88 in - Calm Calm - N/A   Overcast
2:35 PM 30.2 °F - 26.6 °F 86% 29.87 in - Calm Calm - N/A   Overcast
2:55 PM 30.2 °F - 26.6 °F 86% 29.87 in - Calm Calm - N/A   Overcast
3:15 PM 30.2 °F - 26.6 °F 86% 29.87 in - Calm Calm - N/A   Overcast
3:35 PM 32.0 °F - 26.6 °F 80% 29.87 in - Calm Calm - N/A   Overcast
3:55 PM 32.0 °F - 26.6 °F 80% 29.87 in - Calm Calm - 0.01 in   Overcast
4:15 PM 32.0 °F - 26.6 °F 80% 29.87 in - Calm Calm - N/A   Overcast
4:35 PM 32.0 °F - 26.6 °F 80% 29.88 in - Calm Calm - N/A   Overcast
4:55 PM 32.0 °F - 26.6 °F 80% 29.88 in - Calm Calm - N/A   Overcast
5:15 PM 32.0 °F - 26.6 °F 80% 29.87 in - Calm Calm - N/A   Overcast
5:35 PM 32.0 °F - 26.6 °F 80% 29.88 in - Calm Calm - N/A   Overcast
5:55 PM 32.0 °F - 26.6 °F 80% 29.89 in - Calm Calm - N/A   Overcast
6:15 PM 32.0 °F - 26.6 °F 80% 29.90 in - Calm Calm - N/A   Overcast
6:35 PM 32.0 °F - 26.6 °F 80% 29.90 in - Calm Calm - N/A   Overcast
6:55 PM 32.0 °F - 26.6 °F 80% 29.91 in - Calm Calm - N/A   Overcast
7:15 PM 30.2 °F - 26.6 °F 86% 29.92 in - Calm Calm - N/A   Overcast
7:35 PM 30.2 °F - 26.6 °F 86% 29.93 in - Calm Calm - N/A   Overcast
7:55 PM 30.2 °F - 26.6 °F 86% 29.94 in - Calm Calm - N/A   Overcast
8:15 PM 30.2 °F - 26.6 °F 86% 29.94 in - Calm Calm - N/A   Overcast
8:35 PM 30.2 °F - 26.6 °F 86% 29.95 in - Calm Calm - N/A   Overcast
8:55 PM 30.2 °F - 26.6 °F 86% 29.96 in - Calm Calm - N/A   Overcast
9:15 PM 30.2 °F - 26.6 °F 86% 29.96 in - Calm Calm - N/A   Overcast
9:35 PM 30.2 °F - 26.6 °F 86% 29.97 in - Calm Calm - N/A   Overcast
9:55 PM 30.2 °F - 24.8 °F 80% 29.97 in - Calm Calm - N/A   Overcast
10:15 PM 30.2 °F - 24.8 °F 80% 29.98 in - Calm Calm - N/A   Overcast
10:35 PM 30.2 °F - 24.8 °F 80% 29.98 in - Calm Calm - N/A   Overcast
10:55 PM 30.2 °F - 24.8 °F 80% 29.99 in - Calm Calm - N/A   Overcast
11:15 PM 30.2 °F - 24.8 °F 80% 30.00 in - Calm Calm - N/A   Overcast
11:35 PM 30.2 °F - 24.8 °F 80% 30.01 in - Calm Calm - N/A   Overcast
11:55 PM 28.4 °F - 24.8 °F 86% 30.02 in - Calm Calm - N/A   Unknown